FW0538 Weather Reports


Display with metric or nautical units.
time (UTC)temp
F
wind
direction
speed
MPH
gust
MPH
rain 1hr
in
rain 24hr
in
rain mn
in
humidity
%
barometer
mb
20260904090021 55 240 3.0 10.0 0.00 0.00 0.00 69 1006.4
20260904084521 55 237 4.0 8.0 0.00 0.00 0.00 69 1006.5
20260904083024 54 251 5.0 11.0 0.00 0.00 0.00 70 1006.5
20260904081518 55 241 6.0 11.0 0.00 0.00 0.00 71 1006.5
20260904080017 55 227 5.0 11.0 0.00 0.00 0.00 70 1006.5
20260904074534 54 262 9.0 13.0 0.00 0.00 0.00 72 1006.4
20260904073019 55 242 6.0 12.0 0.00 0.00 0.00 68 1006.6
20260904071509 57 236 8.0 16.0 0.00 0.00 0.00 63 1006.5
20260904070009 56 120 9.0 15.0 0.00 0.00 0.00 62 1006.5
20260904064513 57 277 9.0 15.0 0.00 0.00 0.00 62 1006.3
20260904063004 57 226 8.0 15.0 0.00 0.00 0.00 58 1006.3
20260904061503 58 210 6.0 14.0 0.00 0.00 0.00 57 1006.4
20260904060004 57 224 3.0 8.0 0.00 0.00 0.00 57 1006.3
20260904054506 57 232 8.0 10.0 0.00 0.00 0.00 58 1006.5
20260904053001 57 231 3.0 8.0 0.00 0.00 0.00 58 1006.4
20260904051614 58 251 3.0 9.0 0.00 0.00 0.00 56 1006.6
20260904050101 57 227 7.0 13.0 0.00 0.00 0.00 57 1006.6
20260904044608 57 238 5.0 12.0 0.00 0.00 0.00 57 1006.5
20260904043101 58 259 11.0 19.0 0.00 0.00 0.00 56 1006.6
20260904041602 57 226 10.0 15.0 0.00 0.00 0.00 57 1006.7
20260904040108 58 218 9.0 16.0 0.00 0.00 0.00 56 1006.6
20260904034607 58 201 5.0 16.0 0.00 0.00 0.00 55 1006.5
20260904033101 58 221 8.0 14.0 0.00 0.00 0.00 56 1006.5
20260904031554 57 207 7.0 13.0 0.00 0.00 0.00 56 1006.5
20260904030054 57 251 8.0 13.0 0.00 0.00 0.00 57 1006.6
20260904024554 57 245 7.0 13.0 0.00 0.00 0.00 57 1006.5
20260904023055 57 227 6.0 17.0 0.00 0.00 0.00 57 1006.7
20260904021554 58 200 9.0 16.0 0.00 0.00 0.00 57 1006.8
20260904020053 58 234 10.0 17.0 0.00 0.00 0.00 56 1006.8
20260904014623 58 231 10.0 22.0 0.00 0.00 0.00 55 1006.8
20260904013051 59 277 12.0 20.0 0.00 0.00 0.00 54 1006.8
20260904011553 60 237 11.0 25.0 0.00 0.00 0.00 53 1006.8
20260904010058 60 229 16.0 22.0 0.00 0.00 0.00 52 1006.7
20260904004552 61 214 12.0 23.0 0.00 0.00 0.00 52 1006.7
20260904003056 62 232 16.0 24.0 0.00 0.00 0.00 50 1006.8
20260904001548 63 232 14.0 24.0 0.00 0.00 0.00 49 1006.9
20260904000043 62 231 13.0 22.0 0.00 0.00 0.00 50 1007.0
20260903234542 62 228 14.0 27.0 0.00 0.00 0.00 50 1007.2
20260903233049 62 229 18.0 28.0 0.00 0.00 0.00 51 1006.7
20260903231540 63 249 19.0 25.0 0.00 0.00 0.00 48 1006.7
20260903230045 64 215 19.0 28.0 0.00 0.00 0.00 47 1006.7
20260903224538 64 223 22.0 29.0 0.00 0.00 0.00 47 1006.8
20260903223039 65 231 17.0 30.0 0.00 0.00 0.00 46 1007.0
20260903221537 65 237 18.0 30.0 0.00 0.00 0.00 45 1007.2
20260903220042 65 224 21.0 30.0 0.00 0.00 0.00 45 1007.1
20260903214537 66 207 22.0 32.0 0.00 0.00 0.00 44 1007.1
20260903213034 66 233 26.0 37.0 0.00 0.00 0.00 44 1006.6
20260903211533 66 236 27.0 35.0 0.00 0.00 0.00 43 1006.5
20260903210032 63 244 25.0 33.0 0.00 0.00 0.00 46 1006.8
20260903204532 65 236 21.0 30.0 0.00 0.00 0.00 44 1007.4
20260903203027 65 243 20.0 32.0 0.00 0.00 0.00 44 1007.8
20260903201526 65 234 20.0 30.0 0.00 0.00 0.00 43 1008.1
20260903200026 65 215 18.0 26.0 0.00 0.00 0.00 43 1008.1
20260903194524 65 217 15.0 25.0 0.00 0.00 0.00 44 1008.4
20260903193023 64 244 16.0 26.0 0.00 0.00 0.00 43 1008.7
20260903191520 66 230 18.0 26.0 0.00 0.00 0.00 41 1008.7
20260903190019 65 216 16.0 22.0 0.00 0.00 0.00 41 1009.2
20260903184517 65 289 14.0 21.0 0.00 0.00 0.00 41 1009.6
20260903183014 64 233 17.0 25.0 0.00 0.00 0.00 41 1009.9
20260903181512 64 240 15.0 26.0 0.00 0.00 0.00 40 1010.0
20260903180011 63 248 15.0 26.0 0.00 0.00 0.00 42 1009.8
20260903174510 63 246 16.0 23.0 0.00 0.00 0.00 42 1010.2
20260903173008 61 212 16.0 24.0 0.00 0.00 0.00 45 1010.4
20260903171508 61 230 16.0 25.0 0.00 0.00 0.00 45 1010.3
20260903170014 62 212 7.0 15.0 0.00 0.00 0.00 37 1010.7
20260903164507 63 160 3.0 12.0 0.00 0.00 0.00 39 1010.7
20260903163007 62 143 2.0 9.0 0.00 0.00 0.00 41 1010.8
20260903161501 60 154 5.0 12.0 0.00 0.00 0.00 40 1010.8
20260903160100 60 243 14.0 22.0 0.00 0.00 0.00 41 1010.9
20260903154556 58 252 11.0 22.0 0.00 0.00 0.00 40 1011.0
20260903153054 57 237 15.0 23.0 0.00 0.00 0.00 41 1011.1
20260903151553 57 236 17.0 26.0 0.00 0.00 0.00 40 1011.1
20260903150107 56 198 18.0 28.0 0.00 0.00 0.00 40 1011.1
20260903144549 56 239 19.0 29.0 0.00 0.00 0.00 39 1011.1
20260903143048 56 213 12.0 21.0 0.00 0.00 0.00 39 1011.2
20260903141548 55 222 15.0 28.0 0.00 0.00 0.00 41 1010.9
20260903140047 55 227 20.0 28.0 0.00 0.00 0.00 41 1010.8
20260903134556 55 225 18.0 28.0 0.00 0.00 0.00 41 1010.7
20260903133045 55 212 19.0 29.0 0.00 0.00 0.00 42 1010.6
20260903131543 55 225 19.0 32.0 0.00 0.00 0.00 42 1010.4
20260903130043 55 261 20.0 29.0 0.00 0.00 0.00 41 1010.4
20260903124550 55 212 16.0 22.0 0.00 0.00 0.00 40 1010.8
20260903123040 55 226 17.0 26.0 0.00 0.00 0.00 39 1010.9
20260903121538 55 222 14.0 25.0 0.00 0.00 0.00 39 1011.4
20260903120040 56 243 17.0 24.0 0.00 0.00 0.00 38 1011.5
20260903114540 56 238 17.0 25.0 0.00 0.00 0.00 38 1011.4
20260903113037 56 247 17.0 24.0 0.00 0.00 0.00 39 1011.4
20260903111534 56 221 20.0 25.0 0.00 0.00 0.00 40 1011.4
20260903110034 56 212 18.0 27.0 0.00 0.00 0.00 41 1011.5
20260903104533 56 221 21.0 27.0 0.00 0.00 0.00 43 1011.6
20260903103031 55 236 19.0 29.0 0.00 0.00 0.00 45 1011.5
20260903101529 55 214 19.0 28.0 0.00 0.00 0.00 45 1011.2
20260903100033 55 221 23.0 32.0 0.00 0.00 0.00 46 1010.9
20260903094527 55 224 25.0 33.0 0.00 0.00 0.00 47 1010.5
20260903093024 55 221 25.0 33.0 0.00 0.00 0.00 46 1010.7
20260903091523 55 233 20.0 34.0 0.00 0.00 0.00 48 1011.0